User: anonymous
Location: Cincinnati Observatory Center
(39.1389°N, 84.4225°W)
Time: 19:31:43
(UTC-04:00)
Language:

JAS-1B - Orbit

View from above orbital plane
View from above orbital plane
View from above satellite
View from above satellite

Ground track
Ground track

The orbit data is extracted from the following two-line orbital elements,

1 20480U 90013C   14243.81895571 -.00000028  00000-0  82962-5 0  8223
2 20480 099.0525 192.7601 0540490 182.4159 236.4822 12.83395050150834
Epoch (UTC): 31 August 2014 19:39:17
Eccentricity: 0.0540490
inclination: 99.0525°
perigee height: 911 km
apogee height: 1744 km
right ascension of ascending node: 192.7601°
argument of perigee: 182.4159°
revolutions per day: 12.83395050
mean anomaly at epoch: 236.4822°
orbit number at epoch: 15083

The dashed part of the orbit path shows where the satellite is in the earth's shadow,  

DLR